Location: Newark
(41.0400°S, 62.7845°W)
Time: 21:16:43
(UTC+00:00)

Courier 1B Rocket - Pass Details

Date: 07 December 2021
Orbit: 920 x 1202 km, 28.2° (Epoch: 19 January)

Event Time Altitude Azimuth Distance (km) Brightness Sun altitude
Rises 14:54:47 0° 294° (WNW) 3,938 8.1 66.7°
Reaches altitude 10° 14:57:51 10° 304° (NW) 3,021 7.7 67.1°
Maximum altitude 15:04:15 31° 3° (N) 1,935 7.5 67.9°
Drops below altitude 10° 15:10:54 10° 61° (ENE) 3,133 8.1 68.6°
Sets 15:14:08 0° 70° (ENE) 4,104 8.5 69.0°
